Find OneWeb SL0149

NORAD ID: 48058 Int'l Des: 2021-025 Owner: ONEWEBN Country: UK Constellation: oneweb operational
LEOCIRCULARPOLARONEWEB_TYPE

Live Position

Loading 3D Globe...

About OneWeb SL0149

Description loading...

Upcoming Passes

Passes for default location (London). Set your location on the main map for personalized predictions.

Altitude History

Loading altitude history...

Two-Line Element Set

1 48058U 21025S 26125.49933669 -.00000144 00000-0 -42905-3 0 9994
2 48058 87.8962 328.7253 0001744 94.2979 265.8349 13.13469818247883
Epoch: May 5, 2026 • Age: 17 hours

Current Status

Altitude 1212.4 km
Velocity 7.25 km/s
Sub-Earth Point 26.44°N, 154.8°W
Launch Date Mar 25, 2021
Age 5.1 years
Type internet

Technical Details

Classification Payload
Mass 148.00 kg
Dry Mass 140.00 kg
Total Mass 148.00 kg
Length 1.30 m
Diameter 1.00 m
Span 5.00 m
Shape Trapezoid+2 pan
Manufacturer ONEWUS
Bus Type ARROW
Phase Status In Orbit
Owner/State ONEWEBN/UK

Most Searched